Location: Newark
(21.1200°N, 73.4000°E)
Time: 15:38:09
(UTC+00:00)

Explorer 11/Cluster Stage 4 - Pass Details

Date: 23 January 2020
Orbit: 467 x 1259 km, 28.8° (Epoch: 23 February)

Event Time Altitude Azimuth Distance (km) Brightness Sun altitude
Rises 06:56:13 0° 221° (SW) 4,078 10.6 49.0°
Reaches altitude 10° 06:59:16 10° 213° (SSW) 3,173 10.3 49.1°
Maximum altitude 07:06:34 37° 150° (SSE) 1,860 10.0 49.2°
Drops below altitude 10° 07:13:49 10° 86° (E) 3,158 9.8 49.3°
Sets 07:16:51 0° 79° (ENE) 4,057 10.2 49.3°
